Weather History for Fort Stockton, TX

Change the Weather History Date:

Tuesday, January 21, 2014

  Actual Average Record
Temperature  
Mean Temperature 50 °F -  
Max Temperature 64 °F 61 °F 80 °F (2000)
Min Temperature 35 °F 37 °F 26 °F (2011)
Degree Days  
Heating Degree Days 16    
Moisture  
Dew Point 15 °F    
Average Humidity 29    
Maximum Humidity 48    
Minimum Humidity 11    
Precipitation  
Precipitation 0.00 in - - ()
Sea Level Pressure  
Sea Level Pressure 30.31 in    
Wind  
Wind Speed 7 mph (SW)    
Max Wind Speed 14 mph    
Max Gust Speed 16 mph    
Visibility 10 miles    
Events      
Averages and records for this station are not official NWS values.
T = Trace of Precipitation, MM = Missing Value Source: NWS Daily Summary

Daily Weather History Graph

Daily Weather History Graph

Search for Another Location

Airport:

Trip Planner

Search our weather history database for the weather conditions in past years. The results will help you decide how hot, cold, wet, or windy it might be!

Date:

Astronomy

Jan. 21, 2014 Rise Set
Actual Time 7:48 AM CST 6:17 PM CST
Civil Twilight 7:22 AM CST 6:43 PM CST
Nautical Twilight 6:53 AM CST 7:12 PM CST
Astronomical Twilight 6:24 AM CST 7:41 PM CST
Moon 11:27 PM CST 10:42 AM CST
Length of Visible Light 11h 20m
Length of Day
10h 29m
Waning Gibbous, 74% of the Moon is Illuminated
Jan 21
Waning Gibbous
Jan 23
Last Quarter
Jan 30
New
Feb 6
First Quarter
Feb 14
Full

Hourly Weather History & Observations

Time (CST) Temp. Windchill Dew Point Humidity Pressure Visibility Wind Dir Wind Speed Gust Speed Precip Events Conditions
12:53 AM 45.0 °F 40.6 °F 18.0 °F 34% 30.32 in 10.0 mi ENE 8.1 mph - N/A   Clear
1:53 AM 43.0 °F 41.3 °F 18.0 °F 37% 30.36 in 10.0 mi WNW 3.5 mph - N/A   Clear
2:53 AM 43.0 °F 39.5 °F 18.0 °F 37% 30.38 in 10.0 mi WNW 5.8 mph - N/A   Clear
3:53 AM 39.0 °F 34.0 °F 18.0 °F 43% 30.40 in 10.0 mi WNW 6.9 mph - N/A   Clear
4:53 AM 37.9 °F 32.7 °F 18.0 °F 45% 30.40 in 10.0 mi West 6.9 mph - N/A   Clear
5:53 AM 36.0 °F 29.6 °F 18.0 °F 48% 30.41 in 10.0 mi WSW 8.1 mph - N/A   Clear
6:53 AM 36.0 °F 31.1 °F 18.0 °F 48% 30.43 in 10.0 mi West 5.8 mph - N/A   Clear
7:53 AM 35.1 °F 31.0 °F 17.1 °F 48% 30.46 in 10.0 mi WNW 4.6 mph - N/A   Clear
8:53 AM 41.0 °F - 18.0 °F 40% 30.46 in 10.0 mi Calm Calm - N/A   Clear
9:53 AM 44.1 °F 42.5 °F 18.0 °F 35% 30.45 in 10.0 mi SW 3.5 mph - N/A   Clear
10:53 AM 48.9 °F - 17.1 °F 28% 30.45 in 10.0 mi Calm Calm - N/A   Clear
11:53 AM 53.1 °F - 17.1 °F 24% 30.41 in 10.0 mi Variable 3.5 mph - N/A   Clear
12:53 PM 55.9 °F - 15.1 °F 20% 30.35 in 10.0 mi North - - N/A   Clear
1:53 PM 60.1 °F - 9.0 °F 13% 30.28 in 10.0 mi South 10.4 mph 16.1 mph N/A   Clear
2:53 PM 63.0 °F - 8.1 °F 11% 30.23 in 10.0 mi SSW 9.2 mph - N/A   Clear
3:53 PM 64.0 °F - 10.0 °F 12% 30.20 in 10.0 mi North - - N/A   Clear
4:53 PM 64.9 °F - 10.0 °F 12% 30.18 in 10.0 mi SSW 10.4 mph - N/A   Clear
5:53 PM 61.0 °F - 10.9 °F 14% 30.18 in 10.0 mi South 4.6 mph - N/A   Clear
6:53 PM 52.0 °F - 12.9 °F 21% 30.19 in 10.0 mi South 5.8 mph - N/A   Clear
7:53 PM 51.1 °F - 12.0 °F 21% 30.19 in 10.0 mi SSW 11.5 mph - N/A   Clear
8:53 PM 46.0 °F 40.2 °F 12.9 °F 26% 30.18 in 10.0 mi SSW 12.7 mph - N/A   Clear
9:53 PM 46.0 °F 39.9 °F 12.9 °F 26% 30.16 in 10.0 mi SSW 13.8 mph - N/A   Clear
10:53 PM 46.9 °F - 14.0 °F 27% 30.14 in 10.0 mi SSW 13.8 mph - N/A   Clear
11:53 PM 46.0 °F 39.9 °F 14.0 °F 28% 30.13 in 10.0 mi SW 13.8 mph - N/A   Clear